QPF
0.03 0.06 0.06 0.06 0.06 0.09 0.14 0.14 0.10 0.10 0.07 0.04 0.02 0.01 0.01 0.01 0.01 0.03 0.08 0.03 0.00 0.00 0.00 0.01 0.01 0.01 0.02 0.04 0.06 0.08 0.09 0.10 0.11 0.09 0.08 0.09 0.10 0.07 0.03 0.00 0.00 0.00 0.00
0.06 0.07 0.08 0.08 0.05 0.07 0.13 0.15 0.11 0.13 0.07 0.04 0.02 0.00 0.00 0.00 0.01 0.01 0.05 0.08 0.04 0.01 0.00 0.00 0.00 0.00 0.01 0.01 0.03 0.05 0.08 0.10 0.12 0.11 0.10 0.12 0.13 0.10 0.04 0.01 0.00 0.00 0.00
0.05 0.05 0.10 0.09 0.08 0.06 0.13 0.11 0.09 0.10 0.07 0.04 0.03 0.00 0.00 0.00 0.00 0.01 0.01 0.05 0.03 0.02 0.01 0.00 0.01 0.00 0.00 0.01 0.02 0.03 0.06 0.10 0.13 0.14 0.13 0.14 0.17 0.16 0.10 0.04 0.01 0.00 0.00
0.04 0.06 0.07 0.09 0.09 0.07 0.12 0.13 0.10 0.12 0.14 0.08 0.05 0.01 0.01 0.01 0.00 0.00 0.01 0.02 0.01 0.02 0.03 0.02 0.01 0.01 0.00 0.00 0.01 0.02 0.05 0.10 0.14 0.16 0.15 0.14 0.18 0.21 0.18 0.11 0.05 0.01 0.00
0.05 0.09 0.08 0.08 0.05 0.10 0.10 0.09 0.13 0.15 0.17 0.13 0.03 0.05 0.01 0.00 0.00 0.00 0.01 0.00 0.00 0.01 0.02 0.02 0.01 0.00 0.00 0.00 0.01 0.01 0.03 0.09 0.12 0.14 0.15 0.14 0.18 0.23 0.24 0.18 0.09 0.03 0.00
0.06 0.09 0.09 0.10 0.08 0.14 0.14 0.12 0.16 0.16 0.15 0.13 0.03 0.04 0.01 0.00 0.00 0.00 0.00 0.00 0.00 0.00 0.00 0.00 0.01 0.01 0.00 0.00 0.00 0.00 0.01 0.06 0.10 0.11 0.13 0.16 0.22 0.29 0.32 0.24 0.13 0.05 0.01
0.07 0.10 0.08 0.13 0.11 0.14 0.16 0.16 0.23 0.22 0.19 0.18 0.13 0.08 0.01 0.00 0.00 0.00 0.00 0.00 0.00 0.00 0.00 0.00 0.01 0.01 0.00 0.01 0.01 0.00 0.01 0.03 0.07 0.09 0.12 0.17 0.27 0.37 0.41 0.34 0.17 0.07 0.02
0.07 0.08 0.11 0.12 0.13 0.16 0.19 0.20 0.22 0.18 0.15 0.19 0.21 0.17 0.10 0.09 0.06 0.00 0.00 0.00 0.00 0.00 0.00 0.00 0.00 0.00 0.00 0.03 0.04 0.00 0.00 0.01 0.05 0.09 0.13 0.19 0.33 0.47 0.47 0.37 0.21 0.11 0.05
0.06 0.08 0.10 0.12 0.14 0.15 0.18 0.21 0.21 0.19 0.17 0.21 0.28 0.23 0.20 0.20 0.10 0.02 0.01 0.00 0.00 0.00 0.00 0.00 0.00 0.00 0.00 0.03 0.07 0.04 0.00 0.00 0.03 0.08 0.15 0.26 0.47 0.55 0.52 0.40 0.27 0.15 0.07
0.05 0.07 0.09 0.12 0.14 0.14 0.16 0.14 0.17 0.22 0.22 0.19 0.25 0.28 0.26 0.22 0.16 0.09 0.04 0.01 0.01 0.00 0.00 0.00 0.00 0.00 0.01 0.02 0.04 0.02 0.00 0.00 0.02 0.07 0.18 0.34 0.50 0.52 0.49 0.40 0.27 0.14 0.07
0.06 0.06 0.07 0.09 0.12 0.13 0.15 0.15 0.20 0.20 0.21 0.19 0.20 0.21 0.25 0.25 0.20 0.14 0.11 0.07 0.04 0.00 0.00 0.00 0.00 0.00 0.00 0.01 0.03 0.01 0.00 0.00 0.01 0.05 0.13 0.25 0.37 0.43 0.42 0.36 0.22 0.12 0.07
0.08 0.07 0.06 0.08 0.12 0.14 0.16 0.17 0.17 0.18 0.20 0.20 0.19 0.21 0.22 0.20 0.21 0.20 0.16 0.14 0.11 0.02 0.00 0.00 0.00 0.00 0.00 0.01 0.00 0.00 0.00 0.00 0.00 0.02 0.06 0.13 0.22 0.28 0.30 0.25 0.16 0.09 0.04
0.16 0.15 0.11 0.13 0.14 0.15 0.18 0.20 0.21 0.22 0.23 0.21 0.19 0.20 0.21 0.18 0.20 0.20 0.16 0.14 0.16 0.08 0.05 0.02 0.01 0.00 0.00 0.01 0.00 0.00 0.00 0.00 0.00 0.01 0.03 0.05 0.09 0.14 0.15 0.11 0.08 0.06 0.03
0.19 0.18 0.15 0.15 0.15 0.16 0.18 0.20 0.22 0.22 0.23 0.21 0.17 0.20 0.15 0.14 0.17 0.17 0.17 0.18 0.17 0.18 0.20 0.12 0.03 0.01 0.00 0.01 0.01 0.00 0.00 0.00 0.00 0.01 0.01 0.02 0.04 0.05 0.05 0.05 0.03 0.02 0.01
0.12 0.11 0.12 0.13 0.14 0.15 0.15 0.16 0.16 0.16 0.17 0.15 0.14 0.15 0.13 0.12 0.15 0.17 0.19 0.21 0.20 0.19 0.25 0.24 0.11 0.04 0.02 0.02 0.02 0.01 0.00 0.00 0.00 0.00 0.00 0.01 0.01 0.01 0.02 0.01 0.00 0.00 0.00
0.05 0.06 0.06 0.07 0.07 0.08 0.08 0.09 0.09 0.10 0.10 0.10 0.09 0.09 0.10 0.10 0.12 0.15 0.18 0.20 0.22 0.22 0.23 0.26 0.18 0.09 0.07 0.04 0.02 0.01 0.01 0.00 0.00 0.00 0.00 0.00 0.00 0.00 0.00 0.00 0.00 0.00 0.00
0.01 0.01 0.02 0.03 0.03 0.03 0.03 0.03 0.03 0.04 0.04 0.04 0.05 0.07 0.09 0.11 0.12 0.13 0.15 0.17 0.20 0.24 0.22 0.30 0.30 0.25 0.19 0.10 0.04 0.04 0.02 0.01 0.00 0.00 0.00 0.00 0.00 0.00 0.00 0.00 0.00 0.00 0.00
0.00 0.01 0.01 0.02 0.02 0.01 0.01 0.01 0.01 0.01 0.01 0.01 0.02 0.04 0.05 0.07 0.11 0.13 0.15 0.17 0.21 0.28 0.27 0.31 0.43 0.39 0.31 0.18 0.12 0.07 0.03 0.01 0.01 0.01 0.00 0.00 0.00 0.00 0.00 0.00 0.00 0.00 0.00
0.00 0.00 0.00 0.00 0.00 0.00 0.00 0.00 0.01 0.01 0.01 0.01 0.02 0.03 0.04 0.05 0.07 0.11 0.14 0.18 0.22 0.33 0.35 0.33 0.39 0.37 0.28 0.19 0.20 0.15 0.08 0.07 0.03 0.04 0.01 0.00 0.00 0.00 0.00 0.00 0.00 0.00 0.00
0.00 0.00 0.00 0.00 0.00 0.00 0.00 0.00 0.01 0.02 0.02 0.03 0.03 0.03 0.02 0.01 0.02 0.05 0.10 0.17 0.21 0.25 0.30 0.32 0.34 0.33 0.30 0.28 0.26 0.22 0.19 0.13 0.10 0.07 0.06 0.02 0.01 0.00 0.00 0.00 0.00 0.00 0.00
0.00 0.00 0.00 0.00 0.00 0.00 0.00 0.00 0.01 0.01 0.02 0.03 0.04 0.04 0.01 0.00 0.00 0.00 0.02 0.08 0.15 0.22 0.27 0.29 0.33 0.36 0.36 0.35 0.31 0.27 0.26 0.23 0.16 0.13 0.16 0.10 0.07 0.05 0.02 0.01 0.00 0.00 0.00
0.00 0.00 0.00 0.00 0.00 0.00 0.00 0.00 0.00 0.01 0.01 0.02 0.03 0.03 0.01 0.01 0.00 0.00 0.00 0.01 0.04 0.09 0.16 0.25 0.31 0.33 0.33 0.35 0.36 0.31 0.27 0.24 0.20 0.16 0.20 0.22 0.21 0.19 0.14 0.08 0.05 0.03 0.02
0.02 0.01 0.01 0.01 0.00 0.00 0.00 0.00 0.00 0.00 0.00 0.00 0.01 0.01 0.01 0.00 0.00 0.01 0.01 0.02 0.02 0.02 0.05 0.17 0.24 0.23 0.21 0.20 0.23 0.25 0.23 0.21 0.21 0.19 0.19 0.23 0.26 0.29 0.21 0.16 0.11 0.06 0.05
0.03 0.03 0.03 0.03 0.02 0.00 0.00 0.00 0.00 0.00 0.00 0.00 0.00 0.00 0.00 0.00 0.00 0.00 0.02 0.05 0.02 0.01 0.02 0.08 0.09 0.08 0.09 0.12 0.14 0.17 0.19 0.19 0.20 0.20 0.22 0.23 0.27 0.33 0.29 0.21 0.13 0.07 0.05
0.03 0.02 0.03 0.05 0.04 0.01 0.00 0.00 0.00 0.00 0.00 0.00 0.00 0.00 0.00 0.00 0.00 0.00 0.03 0.05 0.02 0.01 0.00 0.01 0.01 0.01 0.02 0.03 0.07 0.11 0.15 0.20 0.22 0.19 0.21 0.29 0.34 0.42 0.50 0.38 0.21 0.09 0.04
0.03 0.03 0.03 0.04 0.04 0.02 0.00 0.00 0.00 0.00 0.00 0.00 0.00 0.00 0.00 0.00 0.00 0.00 0.01 0.03 0.03 0.01 0.01 0.00 0.00 0.00 0.00 0.01 0.01 0.03 0.07 0.13 0.21 0.20 0.16 0.20 0.30 0.46 0.57 0.48 0.29 0.15 0.07
MSLP
1014.15 1014.31 1014.42 1014.50 1014.57 1014.66 1014.76 1014.87 1014.97 1015.01 1014.98 1014.86 1014.66 1014.40 1014.13 1013.89 1013.72 1013.64 1013.66 1013.75 1013.91 1014.09 1014.25 1014.38 1014.45 1014.48 1014.49 1014.48 1014.49 1014.54 1014.65 1014.83 1015.07 1015.38 1015.76 1016.18 1016.64 1017.13 1017.62 1018.11 1018.56 1018.98 1019.36
1013.84 1014.03 1014.16 1014.26 1014.34 1014.42 1014.50 1014.59 1014.66 1014.69 1014.65 1014.54 1014.36 1014.13 1013.87 1013.63 1013.44 1013.33 1013.32 1013.38 1013.52 1013.68 1013.86 1014.01 1014.12 1014.18 1014.20 1014.19 1014.18 1014.18 1014.23 1014.34 1014.53 1014.81 1015.18 1015.62 1016.12 1016.67 1017.22 1017.77 1018.28 1018.75 1019.17
1013.58 1013.79 1013.95 1014.07 1014.16 1014.25 1014.33 1014.41 1014.47 1014.49 1014.46 1014.36 1014.19 1013.97 1013.72 1013.46 1013.23 1013.06 1012.98 1012.98 1013.06 1013.20 1013.37 1013.54 1013.69 1013.78 1013.83 1013.83 1013.80 1013.77 1013.76 1013.80 1013.93 1014.17 1014.52 1014.97 1015.51 1016.11 1016.74 1017.37 1017.96 1018.49 1018.96
1013.35 1013.58 1013.77 1013.92 1014.04 1014.14 1014.23 1014.31 1014.37 1014.39 1014.37 1014.28 1014.13 1013.91 1013.64 1013.35 1013.06 1012.82 1012.64 1012.55 1012.55 1012.64 1012.78 1012.95 1013.12 1013.26 1013.33 1013.35 1013.31 1013.24 1013.17 1013.16 1013.23 1013.42 1013.75 1014.21 1014.79 1015.46 1016.17 1016.89 1017.57 1018.19 1018.74
1013.15 1013.39 1013.60 1013.79 1013.95 1014.07 1014.18 1014.26 1014.33 1014.36 1014.34 1014.27 1014.12 1013.91 1013.62 1013.29 1012.94 1012.61 1012.33 1012.13 1012.03 1012.04 1012.13 1012.29 1012.45 1012.60 1012.69 1012.72 1012.67 1012.57 1012.45 1012.38 1012.40 1012.55 1012.87 1013.35 1013.97 1014.72 1015.52 1016.34 1017.13 1017.85 1018.48
1012.97 1013.21 1013.45 1013.67 1013.86 1014.01 1014.14 1014.23 1014.30 1014.33 1014.33 1014.27 1014.13 1013.92 1013.63 1013.27 1012.86 1012.45 1012.07 1011.77 1011.57 1011.48 1011.50 1011.61 1011.75 1011.89 1011.97 1011.99 1011.92 1011.79 1011.64 1011.52 1011.50 1011.63 1011.94 1012.44 1013.12 1013.93 1014.83 1015.75 1016.65 1017.47 1018.19
1012.80 1013.04 1013.30 1013.55 1013.77 1013.94 1014.08 1014.18 1014.24 1014.28 1014.28 1014.24 1014.12 1013.93 1013.65 1013.28 1012.85 1012.38 1011.93 1011.53 1011.23 1011.05 1010.98 1011.02 1011.11 1011.21 1011.27 1011.25 1011.16 1011.00 1010.82 1010.67 1010.62 1010.74 1011.05 1011.57 1012.30 1013.18 1014.16 1015.17 1016.16 1017.06 1017.85
1012.65 1012.90 1013.17 1013.43 1013.66 1013.85 1013.98 1014.08 1014.14 1014.17 1014.18 1014.15 1014.07 1013.91 1013.66 1013.32 1012.89 1012.41 1011.91 1011.46 1011.08 1010.81 1010.66 1010.61 1010.63 1010.67 1010.68 1010.63 1010.50 1010.32 1010.11 1009.94 1009.89 1010.00 1010.32 1010.87 1011.63 1012.56 1013.60 1014.67 1015.71 1016.67 1017.51
1012.54 1012.78 1013.06 1013.32 1013.55 1013.73 1013.85 1013.93 1013.97 1013.99 1014.00 1013.99 1013.95 1013.84 1013.65 1013.36 1012.98 1012.53 1012.03 1011.55 1011.13 1010.79 1010.56 1010.44 1010.38 1010.35 1010.31 1010.21 1010.06 1009.85 1009.64 1009.47 1009.42 1009.54 1009.88 1010.44 1011.22 1012.17 1013.22 1014.31 1015.37 1016.33 1017.18
1012.45 1012.70 1012.96 1013.22 1013.43 1013.58 1013.67 1013.71 1013.72 1013.73 1013.74 1013.75 1013.74 1013.70 1013.59 1013.38 1013.08 1012.68 1012.23 1011.77 1011.33 1010.96 1010.68 1010.48 1010.36 1010.27 1010.18 1010.05 1009.88 1009.67 1009.47 1009.32 1009.29 1009.43 1009.78 1010.35 1011.12 1012.05 1013.08 1014.14 1015.16 1016.09 1016.91
1012.41 1012.64 1012.89 1013.12 1013.30 1013.41 1013.45 1013.44 1013.41 1013.39 1013.39 1013.42 1013.45 1013.47 1013.44 1013.33 1013.12 1012.81 1012.43 1012.00 1011.59 1011.21 1010.90 1010.67 1010.51 1010.38 1010.26 1010.12 1009.95 1009.77 1009.60 1009.49 1009.50 1009.67 1010.03 1010.59 1011.33 1012.22 1013.18 1014.16 1015.11 1015.96 1016.71
1012.39 1012.60 1012.82 1013.01 1013.14 1013.20 1013.19 1013.13 1013.05 1012.99 1012.98 1013.01 1013.07 1013.15 1013.19 1013.16 1013.04 1012.83 1012.52 1012.17 1011.79 1011.44 1011.13 1010.89 1010.71 1010.58 1010.46 1010.34 1010.22 1010.08 1009.97 1009.92 1009.98 1010.19 1010.56 1011.10 1011.79 1012.60 1013.47 1014.34 1015.17 1015.93 1016.58
1012.38 1012.57 1012.75 1012.89 1012.97 1012.97 1012.89 1012.78 1012.66 1012.56 1012.52 1012.55 1012.63 1012.74 1012.83 1012.87 1012.82 1012.68 1012.46 1012.16 1011.84 1011.53 1011.26 1011.04 1010.88 1010.77 1010.69 1010.62 1010.56 1010.50 1010.48 1010.51 1010.62 1010.86 1011.24 1011.75 1012.38 1013.10 1013.85 1014.61 1015.32 1015.95 1016.51
1012.39 1012.54 1012.68 1012.77 1012.78 1012.72 1012.60 1012.44 1012.27 1012.14 1012.08 1012.09 1012.16 1012.28 1012.39 1012.46 1012.47 1012.38 1012.21 1011.97 1011.70 1011.43 1011.20 1011.02 1010.91 1010.85 1010.84 1010.85 1010.88 1010.92 1010.99 1011.10 1011.29 1011.56 1011.94 1012.42 1012.98 1013.60 1014.24 1014.87 1015.45 1015.97 1016.44
1012.41 1012.53 1012.61 1012.65 1012.62 1012.51 1012.34 1012.14 1011.95 1011.79 1011.70 1011.69 1011.74 1011.84 1011.94 1012.01 1012.03 1011.96 1011.81 1011.61 1011.38 1011.15 1010.96 1010.84 1010.78 1010.79 1010.86 1010.96 1011.09 1011.23 1011.40 1011.60 1011.85 1012.16 1012.53 1012.97 1013.47 1013.99 1014.52 1015.03 1015.50 1015.93 1016.32
1012.46 1012.54 1012.58 1012.57 1012.50 1012.36 1012.17 1011.95 1011.73 1011.56 1011.45 1011.41 1011.43 1011.50 1011.57 1011.61 1011.59 1011.51 1011.36 1011.16 1010.95 1010.75 1010.60 1010.52 1010.52 1010.60 1010.74 1010.93 1011.15 1011.39 1011.64 1011.92 1012.21 1012.55 1012.92 1013.32 1013.75 1014.19 1014.62 1015.04 1015.42 1015.78 1016.10
1012.55 1012.59 1012.60 1012.56 1012.46 1012.31 1012.11 1011.89 1011.68 1011.50 1011.38 1011.32 1011.31 1011.32 1011.34 1011.33 1011.27 1011.15 1010.97 1010.75 1010.53 1010.34 1010.20 1010.15 1010.19 1010.31 1010.51 1010.77 1011.06 1011.37 1011.69 1012.02 1012.35 1012.70 1013.05 1013.42 1013.79 1014.16 1014.52 1014.86 1015.18 1015.49 1015.77
1012.70 1012.71 1012.70 1012.64 1012.54 1012.39 1012.20 1011.99 1011.79 1011.62 1011.50 1011.42 1011.38 1011.35 1011.31 1011.24 1011.12 1010.94 1010.72 1010.47 1010.22 1010.01 1009.87 1009.82 1009.87 1010.02 1010.25 1010.54 1010.87 1011.23 1011.58 1011.94 1012.29 1012.63 1012.97 1013.30 1013.63 1013.94 1014.25 1014.53 1014.81 1015.08 1015.34
1012.90 1012.90 1012.88 1012.82 1012.72 1012.58 1012.41 1012.23 1012.05 1011.90 1011.78 1011.69 1011.62 1011.56 1011.48 1011.36 1011.18 1010.94 1010.67 1010.37 1010.08 1009.84 1009.67 1009.60 1009.64 1009.77 1010.00 1010.29 1010.63 1010.99 1011.36 1011.73 1012.08 1012.41 1012.73 1013.04 1013.33 1013.60 1013.87 1014.12 1014.36 1014.60 1014.84
1013.13 1013.14 1013.12 1013.07 1012.98 1012.86 1012.72 1012.56 1012.41 1012.27 1012.16 1012.07 1011.99 1011.90 1011.79 1011.62 1011.40 1011.13 1010.80 1010.46 1010.14 1009.85 1009.64 1009.53 1009.52 1009.61 1009.80 1010.07 1010.38 1010.73 1011.09 1011.44 1011.78 1012.10 1012.41 1012.70 1012.97 1013.22 1013.46 1013.68 1013.90 1014.12 1014.33
1013.39 1013.41 1013.40 1013.37 1013.30 1013.19 1013.07 1012.93 1012.80 1012.67 1012.57 1012.48 1012.39 1012.29 1012.16 1011.98 1011.73 1011.43 1011.08 1010.71 1010.34 1010.02 1009.75 1009.58 1009.52 1009.55 1009.68 1009.89 1010.16 1010.47 1010.80 1011.14 1011.47 1011.78 1012.08 1012.36 1012.62 1012.87 1013.09 1013.30 1013.50 1013.69 1013.87
1013.65 1013.69 1013.70 1013.68 1013.62 1013.54 1013.42 1013.29 1013.16 1013.04 1012.94 1012.85 1012.76 1012.66 1012.52 1012.33 1012.09 1011.78 1011.42 1011.04 1010.65 1010.28 1009.97 1009.74 1009.61 1009.58 1009.64 1009.78 1009.99 1010.26 1010.55 1010.87 1011.19 1011.50 1011.81 1012.09 1012.36 1012.60 1012.82 1013.02 1013.20 1013.35 1013.50
1013.91 1013.97 1014.00 1013.99 1013.95 1013.86 1013.75 1013.62 1013.48 1013.36 1013.24 1013.14 1013.05 1012.95 1012.82 1012.64 1012.41 1012.12 1011.77 1011.38 1010.98 1010.60 1010.25 1009.97 1009.77 1009.67 1009.66 1009.73 1009.89 1010.10 1010.37 1010.66 1010.98 1011.30 1011.61 1011.91 1012.19 1012.44 1012.66 1012.84 1013.00 1013.12 1013.22
1014.17 1014.25 1014.30 1014.31 1014.27 1014.18 1014.06 1013.92 1013.76 1013.62 1013.49 1013.38 1013.27 1013.17 1013.04 1012.88 1012.67 1012.40 1012.08 1011.72 1011.32 1010.93 1010.56 1010.25 1010.00 1009.83 1009.76 1009.77 1009.87 1010.04 1010.27 1010.54 1010.85 1011.17 1011.50 1011.81 1012.10 1012.36 1012.58 1012.76 1012.89 1012.98 1013.04
1014.44 1014.55 1014.62 1014.64 1014.61 1014.52 1014.39 1014.23 1014.06 1013.88 1013.73 1013.59 1013.47 1013.36 1013.23 1013.09 1012.90 1012.66 1012.37 1012.03 1011.66 1011.27 1010.90 1010.56 1010.28 1010.06 1009.94 1009.89 1009.94 1010.07 1010.26 1010.51 1010.81 1011.13 1011.45 1011.77 1012.07 1012.33 1012.54 1012.71 1012.82 1012.88 1012.90
1014.73 1014.86 1014.96 1015.00 1014.98 1014.90 1014.77 1014.60 1014.41 1014.21 1014.02 1013.85 1013.70 1013.57 1013.44 1013.30 1013.12 1012.91 1012.65 1012.34 1012.00 1011.64 1011.27 1010.93 1010.62 1010.38 1010.21 1010.12 1010.12 1010.20 1010.35 1010.57 1010.83 1011.13 1011.44 1011.75 1012.03 1012.28 1012.49 1012.64 1012.73 1012.77 1012.77
Thickness
5786 5785 5781 5779 5777 5775 5772 5770 5769 5768 5768 5769 5770 5770 5770 5769 5768 5767 5766 5763 5761 5759 5756 5754 5751 5749 5747 5746 5745 5744 5742 5740 5737 5733 5728 5724 5721 5717 5714 5710 5707 5704 5702
5785 5783 5780 5777 5776 5774 5771 5769 5768 5767 5766 5767 5768 5769 5768 5768 5768 5767 5766 5764 5761 5759 5757 5754 5751 5749 5747 5746 5745 5745 5744 5742 5739 5735 5731 5726 5721 5717 5713 5709 5706 5702 5699
5784 5781 5778 5775 5774 5773 5771 5769 5767 5765 5763 5764 5765 5766 5767 5767 5767 5766 5764 5763 5762 5760 5757 5754 5751 5749 5747 5746 5746 5745 5744 5743 5741 5738 5733 5728 5723 5718 5713 5709 5704 5700 5696
5782 5779 5776 5773 5772 5770 5768 5765 5763 5760 5758 5758 5759 5763 5766 5766 5766 5765 5763 5762 5761 5760 5758 5755 5752 5750 5748 5747 5747 5746 5745 5744 5743 5740 5736 5731 5725 5719 5713 5708 5703 5698 5694
5779 5775 5772 5770 5767 5765 5762 5760 5759 5755 5752 5751 5754 5759 5762 5764 5765 5765 5763 5762 5760 5758 5757 5756 5753 5750 5749 5748 5747 5747 5746 5745 5744 5741 5738 5733 5727 5720 5714 5708 5702 5696 5691
5775 5772 5769 5766 5763 5760 5757 5754 5751 5750 5748 5747 5749 5753 5756 5761 5764 5764 5763 5762 5761 5758 5757 5756 5753 5751 5750 5748 5748 5747 5746 5745 5744 5742 5739 5735 5729 5722 5714 5707 5701 5694 5689
5770 5767 5764 5761 5758 5754 5751 5749 5746 5743 5742 5743 5741 5741 5749 5758 5762 5762 5761 5760 5760 5759 5757 5755 5753 5751 5750 5749 5748 5747 5746 5745 5744 5742 5740 5736 5730 5723 5715 5707 5699 5692 5686
5765 5762 5759 5756 5753 5750 5746 5743 5741 5737 5737 5739 5734 5730 5731 5741 5751 5758 5758 5756 5756 5757 5756 5755 5753 5751 5749 5748 5748 5747 5746 5745 5744 5742 5740 5737 5731 5723 5714 5706 5698 5690 5684
5760 5757 5754 5751 5748 5745 5741 5739 5736 5732 5730 5733 5733 5726 5721 5723 5733 5745 5752 5753 5753 5752 5752 5752 5751 5750 5748 5746 5745 5745 5744 5743 5743 5742 5740 5737 5731 5722 5713 5704 5696 5688 5682
5753 5751 5748 5745 5742 5740 5737 5735 5734 5730 5727 5725 5728 5729 5728 5727 5721 5725 5737 5746 5749 5748 5747 5747 5747 5746 5744 5742 5740 5740 5740 5741 5741 5741 5739 5735 5729 5720 5710 5701 5693 5686 5680
5746 5744 5741 5738 5735 5733 5731 5729 5727 5725 5724 5722 5722 5724 5724 5725 5724 5718 5720 5729 5736 5742 5745 5744 5743 5741 5739 5737 5735 5733 5735 5736 5738 5738 5737 5732 5725 5716 5706 5697 5689 5682 5677
5737 5736 5733 5730 5728 5726 5724 5723 5721 5720 5719 5719 5720 5720 5719 5718 5719 5718 5715 5719 5722 5732 5740 5741 5739 5736 5734 5730 5727 5727 5728 5730 5732 5733 5732 5727 5719 5710 5700 5692 5684 5678 5673
5727 5726 5724 5721 5720 5719 5718 5717 5715 5714 5714 5713 5715 5716 5717 5718 5719 5717 5713 5714 5717 5723 5729 5732 5733 5731 5728 5723 5720 5719 5719 5721 5722 5723 5722 5717 5710 5701 5692 5686 5679 5674 5669
5718 5717 5715 5713 5712 5711 5711 5710 5709 5708 5709 5709 5710 5712 5713 5715 5716 5715 5713 5710 5708 5712 5716 5720 5725 5725 5722 5717 5713 5711 5710 5710 5710 5710 5708 5704 5698 5691 5684 5678 5674 5670 5666
5709 5707 5705 5704 5703 5702 5702 5702 5702 5702 5703 5704 5705 5707 5708 5711 5712 5713 5713 5710 5704 5701 5706 5712 5714 5718 5716 5711 5707 5705 5702 5700 5699 5698 5695 5692 5687 5682 5676 5671 5668 5665 5663
5697 5696 5695 5694 5694 5694 5695 5695 5695 5697 5697 5698 5700 5701 5703 5705 5707 5708 5709 5708 5707 5702 5701 5708 5710 5712 5711 5707 5702 5699 5697 5693 5690 5688 5686 5683 5679 5675 5671 5667 5664 5662 5661
5688 5687 5686 5686 5686 5687 5688 5688 5688 5690 5691 5692 5694 5695 5696 5699 5699 5701 5703 5704 5704 5703 5700 5703 5706 5706 5703 5701 5697 5695 5692 5688 5685 5682 5680 5678 5674 5671 5668 5665 5662 5661 5660
5679 5679 5679 5679 5679 5680 5680 5681 5681 5683 5684 5684 5686 5686 5687 5690 5691 5694 5696 5698 5700 5702 5699 5698 5699 5698 5697 5696 5693 5691 5690 5686 5684 5680 5678 5675 5673 5670 5668 5665 5663 5662 5661
5670 5670 5670 5670 5671 5671 5672 5672 5674 5675 5676 5677 5677 5677 5678 5680 5681 5684 5688 5692 5695 5698 5699 5696 5695 5695 5693 5692 5689 5687 5686 5685 5683 5680 5677 5674 5672 5669 5668 5666 5665 5663 5663
5661 5660 5661 5661 5662 5661 5660 5660 5663 5666 5667 5668 5668 5668 5669 5669 5670 5674 5679 5683 5688 5691 5694 5693 5692 5691 5689 5688 5685 5681 5678 5679 5678 5678 5675 5673 5670 5668 5666 5665 5664 5664 5663
5651 5650 5651 5651 5651 5650 5647 5646 5650 5655 5656 5657 5658 5659 5659 5659 5660 5662 5666 5670 5676 5681 5684 5686 5686 5685 5684 5681 5679 5678 5675 5673 5672 5672 5671 5670 5668 5664 5663 5663 5662 5663 5663
5639 5639 5639 5639 5637 5636 5633 5634 5636 5641 5644 5645 5646 5648 5650 5650 5652 5654 5656 5659 5662 5667 5671 5675 5677 5678 5678 5678 5677 5674 5670 5666 5663 5667 5665 5664 5665 5663 5662 5660 5660 5660 5662
5626 5625 5626 5626 5624 5620 5620 5621 5623 5626 5630 5631 5632 5634 5637 5639 5639 5642 5647 5649 5652 5656 5659 5664 5664 5666 5668 5670 5670 5667 5665 5663 5661 5661 5659 5656 5658 5657 5655 5654 5654 5656 5658
5613 5611 5611 5611 5610 5607 5606 5607 5608 5613 5616 5617 5617 5619 5621 5622 5624 5628 5635 5637 5639 5642 5646 5650 5651 5653 5655 5658 5661 5661 5660 5657 5656 5655 5655 5651 5652 5651 5649 5647 5648 5650 5652
5600 5599 5598 5598 5596 5594 5592 5593 5594 5599 5602 5603 5603 5602 5605 5607 5610 5615 5621 5623 5626 5628 5631 5634 5637 5639 5642 5646 5649 5651 5650 5648 5646 5646 5648 5647 5647 5645 5643 5642 5641 5643 5646
5590 5588 5586 5585 5583 5581 5579 5580 5581 5587 5588 5589 5589 5589 5589 5591 5595 5599 5604 5607 5609 5612 5618 5623 5625 5627 5630 5634 5636 5639 5640 5639 5639 5638 5640 5640 5639 5638 5635 5635 5635 5636 5638